Showing default

KUIPER-00433, 68869

Orbit data source: Space-Track

KUIPER-00433, 68869 is an American payload satellite in LEO that was launched on Tue, 28 Apr 2026 UTC launched from the Air Force Eastern Test Range (AFETR). Payload-class satellites include a variety of spacecraft equipped with specific instruments for various scientific and technological missions. These include communications satellites like Starlink; space stations such as the ISS; scientific satellites like the Hubble; Earth observation satellites from companies like Planet Labs, Umbra, and HawkEye 360; GPS; miniature CubeSats for education and research; and military/defense satellites.

Loading next visibility...
Identifier
68869, 2026-095F
Orbit
LEO
Country
Flag of USUS
Related business
None
Manufacturer
Unknown
Mission
Operational spacecraft
Bus & Motor
Unknown
Mass
Unknown
Launch date (UTC)
2026-04-28 (4 days ago)
Launch vehicle
Unknown
Launch site
Air Force Eastern Test Range (AFETR)
Object type
Payload
Rocket body
Debris
Shape & HBR
Unknown
Radar Cross Section
RCS unknown

Expand to show TLE details & history
Last TLE update: 7 hours ago

TLE from 7 hours ago
0 KUIPER-00433
1 68869U 26095F   26122.16670139 -.00002709  00000-0 -63947-4 0  9998
2 68869  51.8738 104.9335 0007815 125.8048  67.5280 15.36529487  1307
Epoch: 2026-05-02T04:00Z
TLE epoch observation values (Epoch: 2026-05-02T04:00:03.000Z)
Latitude
-10.65446°
Longitude
13.2759°
Altitude
457.097 km
Speed
7.64 km/s
True Right ascension
19h 33m 30s
True Declination
-10° 35' 22"
Sunlit
Object was in daylight at epoch
Visualization orbit readout
Latitude
Unknown
Longitude
Unknown
Altitude
Unknown
Speed
Unknown
Apparent Right ascension
Unknown
Apparent Declination
Unknown
Sunlit
N/A
Visualization observer readout
Local Sidereal Time
18:38:25
Azimuth
Unknown
Elevation
Unknown
Doppler factor
Unknown
Orbital elements
Apogee altitude
462.189 km
Perigee altitude
451.506 km
Semi-major axis
6,834.985 km
Eccentricity
0.00078
Inclination
51.8738°
RAAN
104.9335°
Arg. of periapsis
125.8048°
True anomaly
67.61078°
Mean anomaly
67.528°
Eccentric anomaly
67.56939°
Mean motion
3.84093 °/min
Orbital period
93.73 mins
BSTAR
-0.000063947
Loading maneuver chart data...
Computing Atmospheric mass density...
Loading historical data...
Loading historical data...
Loading historical data...
Loading historical data...
Loading historical data...
Loading historical data...
Loading historical data...

Documentation

Showing up to 5 results
|